This is the latest recevied weather packets stored in our database for station/object LA4M-10. If no packets are shown the sender has not sent any weather packets the latest 10 day(s).
| Time | Temp. | Humidity | Pressure | Rain* | Wind** | Luminosity | Snow |
|---|---|---|---|---|---|---|---|
| 1788015154 | 61° F | 100% | 701.3 mmHg | - | - | - | - |
| 1788014254 | 61° F | 100% | 701.2 mmHg | - | - | - | - |
| 1788013354 | 61° F | 100% | 701.2 mmHg | - | - | - | - |
| 1788012454 | 61° F | 100% | 701.1 mmHg | - | - | - | - |
| 1788011554 | 61° F | 100% | 700.9 mmHg | - | - | - | - |
| 1788010654 | 59° F | 100% | 701 mmHg | - | - | - | - |
| 1788009754 | 58° F | 100% | 700.9 mmHg | - | - | - | - |
| 1788008854 | 58° F | 100% | 700.9 mmHg | - | - | - | - |
| 1788007953 | 58° F | 100% | 700.7 mmHg | - | - | - | - |
| 1788007053 | 59° F | 100% | 700.8 mmHg | - | - | - | - |
| 1788006153 | 62° F | 100% | 700.6 mmHg | - | - | - | - |
| 1788005253 | 60° F | 100% | 700.8 mmHg | - | - | - | - |
| 1788004353 | 60° F | 100% | 700.6 mmHg | - | - | - | - |
| 1788003453 | 57° F | 100% | 700.8 mmHg | - | - | - | - |
| 1788002553 | 54° F | 100% | 700.9 mmHg | - | - | - | - |
| 1788001653 | 53° F | 100% | 700.9 mmHg | - | - | - | - |
| 1788000752 | 54° F | 100% | 700.9 mmHg | - | - | - | - |
| 1787999852 | 54° F | 100% | 700.7 mmHg | - | - | - | - |
| 1787998952 | 54° F | 100% | 700.9 mmHg | - | - | - | - |
| 1787998052 | 54° F | 100% | 700.9 mmHg | - | - | - | - |
| 1787997152 | 54° F | 100% | 701.2 mmHg | - | - | - | - |
| 1787996252 | 53° F | 100% | 701 mmHg | - | - | - | - |
| 1787995352 | 53° F | 100% | 701.3 mmHg | - | - | - | - |
| 1787994452 | 53° F | 100% | 701.4 mmHg | - | - | - | - |
| 1787993549 | 53° F | 100% | 701.2 mmHg | - | - | - | - |
* Rain since midnight (hover to see other rain measurements)
** Current wind speed in m/s (hover to see current wind gust speed)